Time,TemperatureF,DewpointF,PressureIn,WindDirection,WindDirectionDegrees,WindSpeedMPH,WindSpeedGustMPH,Humidity,HourlyPrecipIn,Conditions,Clouds,dailyrainin,SolarRadiationWatts/m^2,SoftwareType,DateUTC
2013-09-07 00:01:00,71.5,65.0,30.02,South,175,4.0,4.0,80,0.00,,,0.00,0,Wunderground v.1.15,2013-09-07 05:01:00,
2013-09-07 00:06:00,71.3,64.8,30.02,South,175,0.0,4.0,80,0.00,,,0.00,0,Wunderground v.1.15,2013-09-07 05:06:00,
2013-09-07 00:12:00,71.3,64.8,30.02,South,175,4.0,4.0,80,0.00,,,0.00,0,Wunderground v.1.15,2013-09-07 05:12:00,
2013-09-07 00:17:00,71.3,64.8,30.02,South,175,2.0,5.0,80,0.00,,,0.00,0,Wunderground v.1.15,2013-09-07 05:17:00,
2013-09-07 00:23:00,71.3,64.8,30.02,South,175,5.0,5.0,80,0.00,,,0.00,0,Wunderground v.1.15,2013-09-07 05:23:00,
2013-09-07 00:28:00,71.2,65.1,30.02,South,175,5.0,5.0,81,0.00,,,0.00,0,Wunderground v.1.15,2013-09-07 05:28:00,
2013-09-07 00:33:00,71.1,65.0,30.02,South,175,2.0,4.0,81,0.00,,,0.00,0,Wunderground v.1.15,2013-09-07 05:33:00,
2013-09-07 00:39:00,71.2,65.1,30.01,South,173,0.0,7.0,81,0.00,,,0.00,0,Wunderground v.1.15,2013-09-07 05:39:00,
2013-09-07 00:44:00,71.2,64.7,30.02,South,173,1.0,2.0,80,0.00,,,0.00,0,Wunderground v.1.15,2013-09-07 05:44:00,
2013-09-07 00:49:00,71.2,64.7,30.02,South,175,2.0,2.0,80,0.00,,,0.00,0,Wunderground v.1.15,2013-09-07 05:49:00,
2013-09-07 00:55:00,71.2,64.7,30.02,South,188,2.0,5.0,80,0.00,,,0.00,0,Wunderground v.1.15,2013-09-07 05:55:00,
2013-09-07 01:01:00,71.3,64.8,30.03,South,189,3.0,3.0,80,0.00,,,0.00,0,Wunderground v.1.15,2013-09-07 06:01:00,
2013-09-07 01:06:00,71.4,64.9,30.03,South,190,0.0,4.0,80,0.00,,,0.00,0,Wunderground v.1.15,2013-09-07 06:06:00,
2013-09-07 01:12:00,71.5,64.6,30.03,South,191,0.0,3.0,79,0.00,,,0.00,0,Wunderground v.1.15,2013-09-07 06:12:00,
2013-09-07 01:17:00,71.7,64.8,30.03,SSW,194,1.0,4.0,79,0.00,,,0.00,0,Wunderground v.1.15,2013-09-07 06:17:00,
2013-09-07 01:23:00,71.9,65.0,30.03,South,190,2.0,3.0,79,0.00,,,0.00,0,Wunderground v.1.15,2013-09-07 06:23:00,
2013-09-07 01:28:00,71.9,65.0,30.02,SSW,204,6.0,6.0,79,0.00,,,0.00,0,Wunderground v.1.15,2013-09-07 06:28:00,
2013-09-07 01:33:00,71.9,65.0,30.02,SSW,198,4.0,4.0,79,0.00,,,0.00,0,Wunderground v.1.15,2013-09-07 06:33:00,
2013-09-07 01:39:00,71.6,64.7,30.02,SSW,194,2.0,2.0,79,0.00,,,0.00,0,Wunderground v.1.15,2013-09-07 06:39:00,
2013-09-07 01:45:00,71.4,64.9,30.02,SSW,194,2.0,3.0,80,0.00,,,0.00,0,Wunderground v.1.15,2013-09-07 06:45:00,
2013-09-07 01:50:00,71.1,65.0,30.02,SSW,194,1.0,1.0,81,0.00,,,0.00,0,Wunderground v.1.15,2013-09-07 06:50:00,
2013-09-07 01:55:00,70.9,64.8,30.02,SSW,194,0.0,3.0,81,0.00,,,0.00,0,Wunderground v.1.15,2013-09-07 06:55:00,
2013-09-07 02:01:00,70.7,64.6,30.02,SSW,194,0.0,1.0,81,0.00,,,0.00,0,Wunderground v.1.15,2013-09-07 07:01:00,
2013-09-07 02:06:00,70.4,64.6,30.02,SSW,194,0.0,4.0,82,0.00,,,0.00,0,Wunderground v.1.15,2013-09-07 07:06:00,
2013-09-07 02:11:00,70.3,64.5,30.01,SSW,194,0.0,2.0,82,0.00,,,0.00,0,Wunderground v.1.15,2013-09-07 07:11:00,
2013-09-07 02:16:00,70.2,64.4,30.01,SSW,194,2.0,3.0,82,0.00,,,0.00,0,Wunderground v.1.15,2013-09-07 07:16:00,
2013-09-07 02:20:00,70.1,64.3,30.01,SSW,196,6.0,6.0,82,0.00,,,0.00,0,Wunderground v.1.15,2013-09-07 07:20:00,
2013-09-07 02:25:00,70.2,64.1,30.01,SSW,197,3.0,6.0,81,0.00,,,0.00,0,Wunderground v.1.15,2013-09-07 07:25:00,
2013-09-07 02:30:00,70.3,64.2,30.01,SSW,206,0.0,3.0,81,0.00,,,0.00,0,Wunderground v.1.15,2013-09-07 07:30:00,
2013-09-07 02:35:00,70.4,64.3,30.01,SSW,194,6.0,8.0,81,0.00,,,0.00,0,Wunderground v.1.15,2013-09-07 07:35:00,
2013-09-07 02:40:00,70.6,64.5,30.01,SSW,194,0.0,3.0,81,0.00,,,0.00,0,Wunderground v.1.15,2013-09-07 07:40:00,
2013-09-07 02:45:00,70.7,64.6,30.01,SSW,194,1.0,4.0,81,0.00,,,0.00,0,Wunderground v.1.15,2013-09-07 07:45:00,
2013-09-07 02:50:00,70.7,64.6,30.01,SSW,196,4.0,4.0,81,0.00,,,0.00,0,Wunderground v.1.15,2013-09-07 07:50:00,
2013-09-07 02:56:00,70.7,64.2,30.01,SSW,198,1.0,5.0,80,0.00,,,0.00,0,Wunderground v.1.15,2013-09-07 07:56:00,
2013-09-07 03:01:00,70.7,64.2,30.01,SSW,198,3.0,4.0,80,0.00,,,0.00,0,Wunderground v.1.15,2013-09-07 08:01:00,
2013-09-07 03:06:00,70.7,64.2,30.00,SSW,197,5.0,6.0,80,0.00,,,0.00,0,Wunderground v.1.15,2013-09-07 08:06:00,
2013-09-07 03:11:00,70.8,64.3,30.00,SSW,200,4.0,5.0,80,0.00,,,0.00,0,Wunderground v.1.15,2013-09-07 08:11:00,
2013-09-07 03:16:00,70.8,64.0,30.00,SSW,207,0.0,6.0,79,0.00,,,0.00,0,Wunderground v.1.15,2013-09-07 08:16:00,
2013-09-07 03:21:00,70.8,64.0,29.99,SSW,197,1.0,6.0,79,0.00,,,0.00,0,Wunderground v.1.15,2013-09-07 08:21:00,
2013-09-07 03:26:00,70.9,64.1,29.99,SSW,211,0.0,6.0,79,0.00,,,0.00,0,Wunderground v.1.15,2013-09-07 08:26:00,
2013-09-07 03:31:00,70.9,64.1,30.00,SSW,211,4.0,4.0,79,0.00,,,0.00,0,Wunderground v.1.15,2013-09-07 08:31:00,
2013-09-07 03:36:00,71.0,64.2,30.00,SSW,212,1.0,6.0,79,0.00,,,0.00,0,Wunderground v.1.15,2013-09-07 08:36:00,
2013-09-07 03:41:00,71.1,63.9,29.99,SSW,212,7.0,7.0,78,0.00,,,0.00,0,Wunderground v.1.15,2013-09-07 08:41:00,
2013-09-07 03:46:00,71.1,63.9,29.99,South,188,3.0,7.0,78,0.00,,,0.00,0,Wunderground v.1.15,2013-09-07 08:46:00,
2013-09-07 03:51:00,71.1,63.9,29.99,SSW,200,5.0,6.0,78,0.00,,,0.00,0,Wunderground v.1.15,2013-09-07 08:51:00,
2013-09-07 03:56:00,71.1,63.9,29.99,SSW,192,3.0,7.0,78,0.00,,,0.00,0,Wunderground v.1.15,2013-09-07 08:56:00,
2013-09-07 04:01:00,71.1,63.9,29.99,South,190,2.0,8.0,78,0.00,,,0.00,0,Wunderground v.1.15,2013-09-07 09:01:00,
2013-09-07 04:06:00,71.1,63.9,29.99,South,188,4.0,8.0,78,0.00,,,0.00,0,Wunderground v.1.15,2013-09-07 09:06:00,
2013-09-07 04:11:00,71.1,63.9,29.98,SSW,201,6.0,6.0,78,0.00,,,0.00,0,Wunderground v.1.15,2013-09-07 09:11:00,
2013-09-07 04:16:00,71.1,63.9,29.98,SSW,196,1.0,8.0,78,0.00,,,0.00,0,Wunderground v.1.15,2013-09-07 09:16:00,
2013-09-07 04:21:00,71.0,63.8,29.99,SSW,198,4.0,6.0,78,0.00,,,0.00,0,Wunderground v.1.15,2013-09-07 09:21:00,
2013-09-07 04:26:00,71.1,63.9,29.99,SSW,197,3.0,6.0,78,0.00,,,0.00,0,Wunderground v.1.15,2013-09-07 09:26:00,
2013-09-07 04:31:00,71.0,63.8,29.98,South,190,6.0,8.0,78,0.00,,,0.00,0,Wunderground v.1.15,2013-09-07 09:31:00,
2013-09-07 04:36:00,71.0,63.8,29.98,South,181,2.0,8.0,78,0.00,,,0.00,0,Wunderground v.1.15,2013-09-07 09:36:00,
2013-09-07 04:41:00,71.0,63.8,29.98,South,190,5.0,7.0,78,0.00,,,0.00,0,Wunderground v.1.15,2013-09-07 09:41:00,
2013-09-07 04:46:00,71.0,63.8,29.98,South,187,3.0,8.0,78,0.00,,,0.00,0,Wunderground v.1.15,2013-09-07 09:46:00,
2013-09-07 04:51:00,70.9,63.7,29.98,South,180,0.0,9.0,78,0.00,,,0.00,0,Wunderground v.1.15,2013-09-07 09:51:00,
2013-09-07 04:56:00,70.9,63.7,29.98,South,190,7.0,9.0,78,0.00,,,0.00,0,Wunderground v.1.15,2013-09-07 09:56:00,
2013-09-07 05:01:00,71.0,63.8,29.98,South,175,8.0,8.0,78,0.00,,,0.00,0,Wunderground v.1.15,2013-09-07 10:01:00,
2013-09-07 05:06:00,70.9,63.7,29.99,SSW,192,6.0,10.0,78,0.00,,,0.00,0,Wunderground v.1.15,2013-09-07 10:06:00,
2013-09-07 05:11:00,71.0,63.8,29.98,South,184,4.0,9.0,78,0.00,,,0.00,0,Wunderground v.1.15,2013-09-07 10:11:00,
2013-09-07 05:16:00,71.1,63.9,29.98,SSW,193,5.0,9.0,78,0.00,,,0.00,0,Wunderground v.1.15,2013-09-07 10:16:00,
2013-09-07 05:21:00,70.8,63.6,29.98,South,178,1.0,7.0,78,0.00,,,0.00,0,Wunderground v.1.15,2013-09-07 10:21:00,
2013-09-07 05:26:00,70.6,63.8,29.98,South,186,6.0,7.0,79,0.00,,,0.00,0,Wunderground v.1.15,2013-09-07 10:26:00,
2013-09-07 05:31:00,70.4,63.6,29.98,SSW,202,6.0,7.0,79,0.00,,,0.00,0,Wunderground v.1.15,2013-09-07 10:31:00,
2013-09-07 05:36:00,70.5,63.7,29.98,South,178,5.0,9.0,79,0.00,,,0.00,0,Wunderground v.1.15,2013-09-07 10:36:00,
2013-09-07 05:41:00,70.5,63.7,29.98,South,183,2.0,8.0,79,0.00,,,0.00,0,Wunderground v.1.15,2013-09-07 10:41:00,
2013-09-07 05:46:00,70.5,63.3,29.97,South,186,4.0,9.0,78,0.00,,,0.00,0,Wunderground v.1.15,2013-09-07 10:46:00,
2013-09-07 05:51:00,70.5,63.3,29.98,South,184,5.0,7.0,78,0.00,,,0.00,0,Wunderground v.1.15,2013-09-07 10:51:00,
2013-09-07 05:56:00,70.4,63.2,29.98,SSW,194,6.0,7.0,78,0.00,,,0.00,0,Wunderground v.1.15,2013-09-07 10:56:00,
2013-09-07 06:01:00,70.4,63.2,29.98,South,188,3.0,6.0,78,0.00,,,0.00,0,Wunderground v.1.15,2013-09-07 11:01:00,
2013-09-07 06:06:00,70.2,63.4,29.97,South,189,4.0,8.0,79,0.00,,,0.00,0,Wunderground v.1.15,2013-09-07 11:06:00,
2013-09-07 06:12:00,70.0,63.2,29.97,South,190,1.0,7.0,79,0.00,,,0.00,0,Wunderground v.1.15,2013-09-07 11:12:00,
2013-09-07 06:17:00,69.8,63.3,29.97,SSE,165,7.0,7.0,80,0.00,,,0.00,0,Wunderground v.1.15,2013-09-07 11:17:00,
2013-09-07 06:22:00,69.6,63.2,29.97,SSE,159,6.0,8.0,80,0.00,,,0.00,0,Wunderground v.1.15,2013-09-07 11:22:00,
2013-09-07 06:27:00,69.5,63.4,29.97,South,176,7.0,8.0,81,0.00,,,0.00,0,Wunderground v.1.15,2013-09-07 11:27:00,
2013-09-07 06:32:00,69.4,63.3,29.98,South,173,0.0,7.0,81,0.00,,,0.00,0,Wunderground v.1.15,2013-09-07 11:32:00,
2013-09-07 06:37:00,69.3,63.2,29.97,SE,146,0.0,7.0,81,0.00,,,0.00,9,Wunderground v.1.15,2013-09-07 11:37:00,
2013-09-07 06:42:00,69.3,63.2,29.97,South,185,4.0,6.0,81,0.00,,,0.00,14,Wunderground v.1.15,2013-09-07 11:42:00,
2013-09-07 06:47:00,69.3,63.2,29.97,SSW,198,2.0,7.0,81,0.00,,,0.00,18,Wunderground v.1.15,2013-09-07 11:47:00,
2013-09-07 06:52:00,69.4,63.3,29.97,South,178,1.0,5.0,81,0.00,,,0.00,26,Wunderground v.1.15,2013-09-07 11:52:00,
2013-09-07 06:57:00,69.5,63.4,29.98,SSW,197,5.0,7.0,81,0.00,,,0.00,33,Wunderground v.1.15,2013-09-07 11:57:00,
2013-09-07 07:02:00,69.9,63.4,29.97,SW,216,5.0,17.0,80,0.00,,,0.00,40,Wunderground v.1.15,2013-09-07 12:02:00,
2013-09-07 07:07:00,70.3,63.8,29.97,SSE,167,6.0,17.0,80,0.00,,,0.00,46,Wunderground v.1.15,2013-09-07 12:07:00,
2013-09-07 07:12:00,70.3,63.8,29.97,South,186,4.0,6.0,80,0.00,,,0.00,49,Wunderground v.1.15,2013-09-07 12:12:00,
2013-09-07 07:17:00,70.3,63.8,29.97,South,180,3.0,7.0,80,0.00,,,0.00,51,Wunderground v.1.15,2013-09-07 12:17:00,
2013-09-07 07:22:00,70.5,63.7,29.97,SSW,194,3.0,9.0,79,0.00,,,0.00,51,Wunderground v.1.15,2013-09-07 12:22:00,
2013-09-07 07:27:00,70.6,63.8,29.97,SSW,199,1.0,9.0,79,0.00,,,0.00,58,Wunderground v.1.15,2013-09-07 12:27:00,
2013-09-07 07:32:00,71.1,63.9,29.97,SSW,202,5.0,11.0,78,0.00,,,0.00,76,Wunderground v.1.15,2013-09-07 12:32:00,
2013-09-07 07:37:00,71.7,63.7,29.97,SSW,196,6.0,12.0,76,0.00,,,0.00,113,Wunderground v.1.15,2013-09-07 12:37:00,
2013-09-07 07:42:00,72.2,64.2,29.97,South,184,5.0,11.0,76,0.00,,,0.00,125,Wunderground v.1.15,2013-09-07 12:42:00,
2013-09-07 07:47:00,72.5,64.1,29.97,SSE,166,9.0,15.0,75,0.00,,,0.00,135,Wunderground v.1.15,2013-09-07 12:47:00,
2013-09-07 07:52:00,72.7,64.3,29.97,South,191,5.0,13.0,75,0.00,,,0.00,229,Wunderground v.1.15,2013-09-07 12:52:00,
2013-09-07 07:57:00,73.1,64.3,29.97,South,174,5.0,13.0,74,0.00,,,0.00,179,Wunderground v.1.15,2013-09-07 12:57:00,
2013-09-07 08:02:00,73.1,64.3,29.97,SW,220,13.0,14.0,74,0.00,,,0.00,107,Wunderground v.1.15,2013-09-07 13:02:00,
2013-09-07 08:07:00,73.1,64.3,29.98,SSW,205,7.0,15.0,74,0.00,,,0.00,104,Wunderground v.1.15,2013-09-07 13:07:00,
2013-09-07 08:12:00,72.9,64.5,29.97,South,186,6.0,13.0,75,0.00,,,0.00,114,Wunderground v.1.15,2013-09-07 13:12:00,
2013-09-07 08:17:00,72.7,64.7,29.97,South,189,8.0,13.0,76,0.00,,,0.00,148,Wunderground v.1.15,2013-09-07 13:17:00,
2013-09-07 08:22:00,72.7,64.7,29.97,SSW,196,8.0,13.0,76,0.00,,,0.00,186,Wunderground v.1.15,2013-09-07 13:22:00,
2013-09-07 08:27:00,72.8,64.8,29.97,SSW,205,6.0,13.0,76,0.00,,,0.00,193,Wunderground v.1.15,2013-09-07 13:27:00,
2013-09-07 08:32:00,73.0,65.4,29.97,SSW,193,6.0,10.0,77,0.00,,,0.00,195,Wunderground v.1.15,2013-09-07 13:32:00,
2013-09-07 08:37:00,73.1,65.1,29.97,SSW,195,8.0,10.0,76,0.00,,,0.00,128,Wunderground v.1.15,2013-09-07 13:37:00,
2013-09-07 08:42:00,73.1,65.1,29.97,SSE,168,9.0,10.0,76,0.00,,,0.00,102,Wunderground v.1.15,2013-09-07 13:42:00,
2013-09-07 08:47:00,73.0,65.0,29.97,South,183,7.0,11.0,76,0.00,,,0.00,105,Wunderground v.1.15,2013-09-07 13:47:00,
2013-09-07 08:52:00,72.9,65.3,29.97,SSW,205,8.0,8.0,77,0.00,,,0.00,100,Wunderground v.1.15,2013-09-07 13:52:00,
2013-09-07 08:57:00,72.9,65.3,29.97,SSW,192,7.0,11.0,77,0.00,,,0.00,127,Wunderground v.1.15,2013-09-07 13:57:00,
2013-09-07 09:02:00,72.9,64.9,29.96,South,185,1.0,9.0,76,0.00,,,0.00,134,Wunderground v.1.15,2013-09-07 14:02:00,
2013-09-07 09:07:00,73.0,65.0,29.96,SSW,197,4.0,10.0,76,0.00,,,0.00,197,Wunderground v.1.15,2013-09-07 14:07:00,
2013-09-07 09:12:00,73.2,65.6,29.96,South,178,5.0,9.0,77,0.00,,,0.00,350,Wunderground v.1.15,2013-09-07 14:12:00,
2013-09-07 09:17:00,73.5,65.5,29.95,SSW,194,8.0,11.0,76,0.00,,,0.00,169,Wunderground v.1.15,2013-09-07 14:17:00,
2013-09-07 09:22:00,73.5,65.1,29.95,SSW,192,3.0,11.0,75,0.00,,,0.00,163,Wunderground v.1.15,2013-09-07 14:22:00,
2013-09-07 09:27:00,73.6,65.6,29.94,South,171,12.0,12.0,76,0.00,,,0.00,116,Wunderground v.1.15,2013-09-07 14:27:00,
2013-09-07 09:32:00,73.6,65.2,29.94,SSW,198,4.0,13.0,75,0.00,,,0.00,116,Wunderground v.1.15,2013-09-07 14:32:00,
2013-09-07 09:37:00,73.5,65.1,29.94,South,187,5.0,13.0,75,0.00,,,0.00,102,Wunderground v.1.15,2013-09-07 14:37:00,
2013-09-07 09:42:00,73.6,65.2,29.94,SSW,211,5.0,8.0,75,0.00,,,0.00,102,Wunderground v.1.15,2013-09-07 14:42:00,
2013-09-07 09:47:00,73.6,64.8,29.94,SW,222,6.0,8.0,74,0.00,,,0.00,76,Wunderground v.1.15,2013-09-07 14:47:00,
2013-09-07 09:52:00,73.6,64.8,29.95,SSW,202,11.0,11.0,74,0.00,,,0.00,49,Wunderground v.1.15,2013-09-07 14:52:00,
2013-09-07 09:57:00,73.6,64.8,29.95,SW,222,3.0,12.0,74,0.00,,,0.00,23,Wunderground v.1.15,2013-09-07 14:57:00,
2013-09-07 10:02:00,73.5,65.1,29.96,SSW,212,8.0,9.0,75,0.00,,,0.00,30,Wunderground v.1.15,2013-09-07 15:02:00,
2013-09-07 10:07:00,73.3,65.3,29.96,SW,228,0.0,9.0,76,0.00,,,0.00,25,Wunderground v.1.15,2013-09-07 15:07:00,
2013-09-07 10:12:00,73.1,65.5,29.96,SW,228,1.0,3.0,77,0.00,,,0.00,25,Wunderground v.1.15,2013-09-07 15:12:00,
2013-09-07 10:17:00,72.9,65.3,29.97,SW,228,1.0,4.0,77,0.00,,,0.00,25,Wunderground v.1.15,2013-09-07 15:17:00,
2013-09-07 10:22:00,72.8,65.5,29.97,SW,228,0.0,1.0,78,0.00,,,0.00,18,Wunderground v.1.15,2013-09-07 15:22:00,
2013-09-07 10:27:00,72.8,65.9,29.98,SW,228,0.0,1.0,79,0.00,,,0.00,19,Wunderground v.1.15,2013-09-07 15:27:00,
2013-09-07 10:32:00,72.6,65.7,29.98,SW,228,0.0,0.0,79,0.00,,,0.00,40,Wunderground v.1.15,2013-09-07 15:32:00,
2013-09-07 10:37:00,72.5,66.0,29.97,SW,228,0.0,1.0,80,0.00,,,0.00,95,Wunderground v.1.15,2013-09-07 15:37:00,
2013-09-07 10:42:00,72.4,65.9,29.97,SW,228,0.0,0.0,80,0.00,,,0.00,142,Wunderground v.1.15,2013-09-07 15:42:00,
2013-09-07 10:47:00,72.6,66.4,29.97,SW,228,1.0,1.0,81,0.00,,,0.00,223,Wunderground v.1.15,2013-09-07 15:47:00,
2013-09-07 10:52:00,73.0,66.5,29.97,SW,228,1.0,1.0,80,0.00,,,0.00,186,Wunderground v.1.15,2013-09-07 15:52:00,
2013-09-07 10:57:00,73.4,65.7,29.97,SW,228,0.0,1.0,77,0.00,,,0.00,325,Wunderground v.1.15,2013-09-07 15:57:00,
2013-09-07 11:02:00,74.1,65.7,29.97,SW,228,1.0,1.0,75,0.00,,,0.00,455,Wunderground v.1.15,2013-09-07 16:02:00,
2013-09-07 11:07:00,75.1,66.6,29.97,SSW,196,2.0,4.0,75,0.00,,,0.00,786,Wunderground v.1.15,2013-09-07 16:07:00,
2013-09-07 11:12:00,76.1,66.4,29.97,SSE,165,2.0,7.0,72,0.00,,,0.00,529,Wunderground v.1.15,2013-09-07 16:12:00,
2013-09-07 11:17:00,76.6,66.5,29.97,SSE,153,4.0,7.0,71,0.00,,,0.00,288,Wunderground v.1.15,2013-09-07 16:17:00,
2013-09-07 11:22:00,76.6,66.9,29.96,South,184,7.0,7.0,72,0.00,,,0.00,316,Wunderground v.1.15,2013-09-07 16:22:00,
2013-09-07 11:27:00,76.7,66.6,29.96,SSW,192,4.0,7.0,71,0.00,,,0.00,306,Wunderground v.1.15,2013-09-07 16:27:00,
2013-09-07 11:32:00,76.6,66.5,29.96,South,187,4.0,8.0,71,0.00,,,0.00,309,Wunderground v.1.15,2013-09-07 16:32:00,
2013-09-07 11:37:00,76.6,66.9,29.96,SSW,192,5.0,8.0,72,0.00,,,0.00,341,Wunderground v.1.15,2013-09-07 16:37:00,
2013-09-07 11:42:00,76.7,66.6,29.96,South,184,3.0,6.0,71,0.00,,,0.00,455,Wunderground v.1.15,2013-09-07 16:42:00,
2013-09-07 11:48:00,76.7,67.0,29.96,South,183,0.0,6.0,72,0.00,,,0.00,243,Wunderground v.1.15,2013-09-07 16:48:00,
2013-09-07 11:53:00,76.8,67.1,29.96,South,182,2.0,5.0,72,0.00,,,0.00,142,Wunderground v.1.15,2013-09-07 16:53:00,
2013-09-07 11:58:00,76.8,66.7,29.96,South,171,0.0,6.0,71,0.00,,,0.00,306,Wunderground v.1.15,2013-09-07 16:58:00,
2013-09-07 12:03:00,77.0,67.3,29.96,SSE,167,1.0,4.0,72,0.00,,,0.00,420,Wunderground v.1.15,2013-09-07 17:03:00,
2013-09-07 12:08:00,77.5,67.4,29.96,South,174,2.0,7.0,71,0.00,,,0.00,798,Wunderground v.1.15,2013-09-07 17:08:00,
2013-09-07 12:13:00,78.2,67.6,29.95,SE,142,4.0,8.0,70,0.00,,,0.00,833,Wunderground v.1.15,2013-09-07 17:13:00,
2013-09-07 12:18:00,78.8,67.3,29.95,SE,124,5.0,8.0,68,0.00,,,0.00,536,Wunderground v.1.15,2013-09-07 17:18:00,
2013-09-07 12:23:00,79.2,68.1,29.95,South,179,5.0,8.0,69,0.00,,,0.00,526,Wunderground v.1.15,2013-09-07 17:23:00,
2013-09-07 12:28:00,79.4,67.5,29.94,SE,144,0.0,8.0,67,0.00,,,0.00,271,Wunderground v.1.15,2013-09-07 17:28:00,
2013-09-07 12:33:00,79.2,67.3,29.94,SSE,148,0.0,8.0,67,0.00,,,0.00,327,Wunderground v.1.15,2013-09-07 17:33:00,
2013-09-07 12:38:00,79.2,67.7,29.94,SE,142,0.0,8.0,68,0.00,,,0.00,327,Wunderground v.1.15,2013-09-07 17:38:00,
2013-09-07 12:43:00,79.4,67.5,29.94,SE,142,1.0,5.0,67,0.00,,,0.00,796,Wunderground v.1.15,2013-09-07 17:43:00,
2013-09-07 12:48:00,79.8,67.9,29.94,SE,142,4.0,6.0,67,0.00,,,0.00,737,Wunderground v.1.15,2013-09-07 17:48:00,
2013-09-07 12:53:00,80.4,68.0,29.94,SE,142,0.0,6.0,66,0.00,,,0.00,737,Wunderground v.1.15,2013-09-07 17:53:00,
2013-09-07 12:58:00,80.9,68.5,29.94,SE,142,2.0,8.0,66,0.00,,,0.00,740,Wunderground v.1.15,2013-09-07 17:58:00,
2013-09-07 13:03:00,81.2,67.9,29.94,South,186,3.0,6.0,64,0.00,,,0.00,735,Wunderground v.1.15,2013-09-07 18:03:00,
2013-09-07 13:08:00,81.6,68.2,29.94,South,184,1.0,6.0,64,0.00,,,0.00,735,Wunderground v.1.15,2013-09-07 18:08:00,
2013-09-07 13:13:00,82.0,68.2,29.94,SE,126,0.0,7.0,63,0.00,,,0.00,744,Wunderground v.1.15,2013-09-07 18:13:00,
2013-09-07 13:18:00,82.3,68.9,29.94,SSE,163,6.0,7.0,64,0.00,,,0.00,749,Wunderground v.1.15,2013-09-07 18:18:00,
2013-09-07 13:23:00,82.4,68.1,29.94,South,174,0.0,7.0,62,0.00,,,0.00,744,Wunderground v.1.15,2013-09-07 18:23:00,
2013-09-07 13:28:00,82.5,68.2,29.94,SSW,208,1.0,7.0,62,0.00,,,0.00,744,Wunderground v.1.15,2013-09-07 18:28:00,
2013-09-07 13:33:00,82.7,68.4,29.94,South,182,5.0,9.0,62,0.00,,,0.00,740,Wunderground v.1.15,2013-09-07 18:33:00,
2013-09-07 13:38:00,82.7,68.4,29.94,South,190,4.0,9.0,62,0.00,,,0.00,744,Wunderground v.1.15,2013-09-07 18:38:00,
2013-09-07 13:43:00,82.9,69.0,29.94,South,175,5.0,7.0,63,0.00,,,0.00,740,Wunderground v.1.15,2013-09-07 18:43:00,
2013-09-07 13:48:00,83.2,68.3,29.94,South,180,0.0,7.0,61,0.00,,,0.00,738,Wunderground v.1.15,2013-09-07 18:48:00,
2013-09-07 13:53:00,83.6,68.2,29.93,SW,220,2.0,6.0,60,0.00,,,0.00,735,Wunderground v.1.15,2013-09-07 18:53:00,
2013-09-07 13:58:00,83.8,68.4,29.93,SW,222,3.0,6.0,60,0.00,,,0.00,731,Wunderground v.1.15,2013-09-07 18:58:00,
2013-09-07 14:03:00,83.9,69.0,29.94,South,183,2.0,4.0,61,0.00,,,0.00,728,Wunderground v.1.15,2013-09-07 19:03:00,
2013-09-07 14:08:00,84.1,69.2,29.94,SSE,159,9.0,9.0,61,0.00,,,0.00,721,Wunderground v.1.15,2013-09-07 19:08:00,
2013-09-07 14:13:00,84.1,69.2,29.93,SSE,155,0.0,8.0,61,0.00,,,0.00,707,Wunderground v.1.15,2013-09-07 19:13:00,
2013-09-07 14:18:00,84.2,69.3,29.93,South,184,4.0,8.0,61,0.00,,,0.00,694,Wunderground v.1.15,2013-09-07 19:18:00,
2013-09-07 14:23:00,84.3,68.9,29.93,SW,217,7.0,8.0,60,0.00,,,0.00,694,Wunderground v.1.15,2013-09-07 19:23:00,
2013-09-07 14:28:00,84.3,68.9,29.93,SW,233,1.0,8.0,60,0.00,,,0.00,640,Wunderground v.1.15,2013-09-07 19:28:00,
2013-09-07 14:33:00,84.5,69.1,29.93,SSW,205,4.0,6.0,60,0.00,,,0.00,645,Wunderground v.1.15,2013-09-07 19:33:00,
2013-09-07 14:38:00,84.8,68.4,29.93,SSW,194,5.0,8.0,58,0.00,,,0.00,738,Wunderground v.1.15,2013-09-07 19:38:00,
2013-09-07 14:43:00,85.0,69.1,29.93,South,169,5.0,8.0,59,0.00,,,0.00,745,Wunderground v.1.15,2013-09-07 19:43:00,
2013-09-07 14:48:00,85.0,69.1,29.93,South,184,2.0,8.0,59,0.00,,,0.00,705,Wunderground v.1.15,2013-09-07 19:48:00,
2013-09-07 14:53:00,85.2,69.3,29.94,SSE,155,4.0,7.0,59,0.00,,,0.00,633,Wunderground v.1.15,2013-09-07 19:53:00,
2013-09-07 14:58:00,85.4,69.4,29.94,SSE,148,5.0,8.0,59,0.00,,,0.00,626,Wunderground v.1.15,2013-09-07 19:58:00,
2013-09-07 15:03:00,85.6,69.6,29.94,SW,221,4.0,6.0,59,0.00,,,0.00,696,Wunderground v.1.15,2013-09-07 20:03:00,
2013-09-07 15:08:00,85.9,69.9,29.94,SSW,202,4.0,6.0,59,0.00,,,0.00,624,Wunderground v.1.15,2013-09-07 20:08:00,
2013-09-07 15:14:00,86.1,70.1,29.94,SSW,202,0.0,4.0,59,0.00,,,0.00,663,Wunderground v.1.15,2013-09-07 20:14:00,
2013-09-07 15:19:00,86.2,70.2,29.94,SSW,192,2.0,7.0,59,0.00,,,0.00,642,Wunderground v.1.15,2013-09-07 20:19:00,
2013-09-07 15:24:00,86.4,69.9,29.94,South,188,6.0,10.0,58,0.00,,,0.00,629,Wunderground v.1.15,2013-09-07 20:24:00,
2013-09-07 15:29:00,86.4,69.9,29.94,South,171,4.0,10.0,58,0.00,,,0.00,587,Wunderground v.1.15,2013-09-07 20:29:00,
2013-09-07 15:34:00,86.5,70.0,29.93,South,172,2.0,6.0,58,0.00,,,0.00,580,Wunderground v.1.15,2013-09-07 20:34:00,
2013-09-07 15:39:00,86.6,69.6,29.93,South,172,0.0,6.0,57,0.00,,,0.00,443,Wunderground v.1.15,2013-09-07 20:39:00,
2013-09-07 15:44:00,86.6,70.1,29.93,South,174,2.0,6.0,58,0.00,,,0.00,531,Wunderground v.1.15,2013-09-07 20:44:00,
2013-09-07 15:49:00,86.7,70.2,29.93,SSW,201,3.0,6.0,58,0.00,,,0.00,515,Wunderground v.1.15,2013-09-07 20:49:00,
2013-09-07 15:54:00,86.6,70.1,29.93,SSW,193,1.0,8.0,58,0.00,,,0.00,520,Wunderground v.1.15,2013-09-07 20:54:00,
2013-09-07 15:59:00,86.8,70.2,29.93,SSW,204,5.0,8.0,58,0.00,,,0.00,515,Wunderground v.1.15,2013-09-07 20:59:00,
2013-09-07 16:04:00,86.8,70.2,29.93,SSW,205,1.0,5.0,58,0.00,,,0.00,494,Wunderground v.1.15,2013-09-07 21:04:00,
2013-09-07 16:09:00,87.0,69.9,29.93,SSW,205,0.0,5.0,57,0.00,,,0.00,357,Wunderground v.1.15,2013-09-07 21:09:00,
2013-09-07 16:14:00,87.3,70.2,29.93,South,178,5.0,5.0,57,0.00,,,0.00,482,Wunderground v.1.15,2013-09-07 21:14:00,
2013-09-07 16:19:00,87.4,70.3,29.93,South,180,0.0,6.0,57,0.00,,,0.00,464,Wunderground v.1.15,2013-09-07 21:19:00,
2013-09-07 16:24:00,87.3,70.7,29.93,South,180,4.0,7.0,58,0.00,,,0.00,373,Wunderground v.1.15,2013-09-07 21:24:00,
2013-09-07 16:29:00,87.2,70.1,29.93,South,181,0.0,7.0,57,0.00,,,0.00,279,Wunderground v.1.15,2013-09-07 21:29:00,
2013-09-07 16:34:00,87.2,70.1,29.93,South,181,1.0,2.0,57,0.00,,,0.00,267,Wunderground v.1.15,2013-09-07 21:34:00,
2013-09-07 16:39:00,87.1,70.5,29.93,South,181,0.0,3.0,58,0.00,,,0.00,192,Wunderground v.1.15,2013-09-07 21:39:00,
2013-09-07 16:44:00,87.0,71.9,29.94,South,181,0.0,1.0,61,0.00,,,0.00,383,Wunderground v.1.15,2013-09-07 21:44:00,
2013-09-07 16:49:00,87.1,70.5,29.93,ESE,123,2.0,5.0,58,0.00,,,0.00,237,Wunderground v.1.15,2013-09-07 21:49:00,
2013-09-07 16:54:00,87.2,71.1,29.93,ESE,123,0.0,2.0,59,0.00,,,0.00,229,Wunderground v.1.15,2013-09-07 21:54:00,
2013-09-07 16:59:00,87.2,72.1,29.93,ESE,110,0.0,5.0,61,0.00,,,0.00,151,Wunderground v.1.15,2013-09-07 21:59:00,
2013-09-07 17:04:00,86.8,72.7,29.93,East,87,1.0,4.0,63,0.00,,,0.00,167,Wunderground v.1.15,2013-09-07 22:04:00,
2013-09-07 17:09:00,85.9,72.8,29.94,East,90,0.0,4.0,65,0.00,,,0.00,179,Wunderground v.1.15,2013-09-07 22:09:00,
2013-09-07 17:14:00,85.2,73.0,29.93,East,90,0.0,1.0,67,0.00,,,0.00,160,Wunderground v.1.15,2013-09-07 22:14:00,
2013-09-07 17:19:00,84.7,73.0,29.94,East,97,1.0,2.0,68,0.00,,,0.00,153,Wunderground v.1.15,2013-09-07 22:19:00,
2013-09-07 17:24:00,84.4,73.1,29.94,ENE,63,0.0,3.0,69,0.00,,,0.00,149,Wunderground v.1.15,2013-09-07 22:24:00,
2013-09-07 17:29:00,83.9,72.6,29.94,NE,34,0.0,4.0,69,0.00,,,0.00,188,Wunderground v.1.15,2013-09-07 22:29:00,
2013-09-07 17:34:00,83.6,72.3,29.94,NE,35,1.0,3.0,69,0.00,,,0.00,142,Wunderground v.1.15,2013-09-07 22:34:00,
2013-09-07 17:39:00,83.3,72.1,29.94,NE,44,3.0,4.0,69,0.00,,,0.00,204,Wunderground v.1.15,2013-09-07 22:39:00,
2013-09-07 17:44:00,83.1,72.7,29.93,NNE,33,0.0,3.0,71,0.00,,,0.00,211,Wunderground v.1.15,2013-09-07 22:44:00,
2013-09-07 17:49:00,83.1,72.7,29.94,NE,34,0.0,5.0,71,0.00,,,0.00,178,Wunderground v.1.15,2013-09-07 22:49:00,
2013-09-07 17:54:00,82.9,72.5,29.94,NE,48,0.0,5.0,71,0.00,,,0.00,162,Wunderground v.1.15,2013-09-07 22:54:00,
2013-09-07 17:59:00,82.6,72.2,29.94,NE,48,0.0,5.0,71,0.00,,,0.00,100,Wunderground v.1.15,2013-09-07 22:59:00,
2013-09-07 18:04:00,82.2,72.3,29.94,NE,48,0.0,1.0,72,0.00,,,0.00,118,Wunderground v.1.15,2013-09-07 23:04:00,
2013-09-07 18:09:00,81.9,72.4,29.94,NE,49,0.0,3.0,73,0.00,,,0.00,139,Wunderground v.1.15,2013-09-07 23:09:00,
2013-09-07 18:14:00,81.8,72.3,29.95,NE,49,1.0,2.0,73,0.00,,,0.00,137,Wunderground v.1.15,2013-09-07 23:14:00,
2013-09-07 18:19:00,81.9,72.0,29.95,NE,45,0.0,4.0,72,0.00,,,0.00,120,Wunderground v.1.15,2013-09-07 23:19:00,
2013-09-07 18:24:00,82.1,72.6,29.96,NE,45,0.0,3.0,73,0.00,,,0.00,102,Wunderground v.1.15,2013-09-07 23:24:00,
2013-09-07 18:29:00,82.2,72.3,29.95,NE,45,0.0,3.0,72,0.00,,,0.00,91,Wunderground v.1.15,2013-09-07 23:29:00,
2013-09-07 18:34:00,82.5,72.6,29.96,NE,45,0.0,1.0,72,0.00,,,0.00,83,Wunderground v.1.15,2013-09-07 23:34:00,
2013-09-07 18:39:00,82.5,72.6,29.96,NE,52,0.0,1.0,72,0.00,,,0.00,67,Wunderground v.1.15,2013-09-07 23:39:00,
2013-09-07 18:44:00,82.2,72.7,29.96,NE,52,0.0,1.0,73,0.00,,,0.00,62,Wunderground v.1.15,2013-09-07 23:44:00,
2013-09-07 18:49:00,81.8,72.3,29.96,NE,52,0.0,1.0,73,0.00,,,0.00,49,Wunderground v.1.15,2013-09-07 23:49:00,
2013-09-07 18:54:00,81.3,72.6,29.96,NE,52,0.0,1.0,75,0.00,,,0.00,30,Wunderground v.1.15,2013-09-07 23:54:00,
2013-09-07 18:59:00,80.7,72.4,29.96,NE,52,0.0,2.0,76,0.00,,,0.00,18,Wunderground v.1.15,2013-09-07 23:59:00,
2013-09-07 19:04:00,80.2,72.3,29.97,NE,52,0.0,1.0,77,0.00,,,0.00,14,Wunderground v.1.15,2013-09-08 00:04:00,
2013-09-07 19:09:00,79.7,72.2,29.97,NE,53,0.0,1.0,78,0.00,,,0.00,11,Wunderground v.1.15,2013-09-08 00:09:00,
2013-09-07 19:14:00,79.3,72.2,29.97,NE,53,0.0,1.0,79,0.00,,,0.00,7,Wunderground v.1.15,2013-09-08 00:14:00,
2013-09-07 19:19:00,78.9,72.2,29.97,ENE,63,0.0,4.0,80,0.00,,,0.00,5,Wunderground v.1.15,2013-09-08 00:19:00,
2013-09-07 19:24:00,78.6,72.3,29.97,ENE,64,1.0,1.0,81,0.00,,,0.00,0,Wunderground v.1.15,2013-09-08 00:24:00,
2013-09-07 19:29:00,78.3,72.3,29.97,ENE,58,0.0,3.0,82,0.00,,,0.00,0,Wunderground v.1.15,2013-09-08 00:29:00,
2013-09-07 19:34:00,78.0,72.1,29.97,ENE,58,0.0,1.0,82,0.00,,,0.00,0,Wunderground v.1.15,2013-09-08 00:34:00,
2013-09-07 19:39:00,77.6,71.7,29.97,NE,56,0.0,2.0,82,0.00,,,0.00,0,Wunderground v.1.15,2013-09-08 00:39:00,
2013-09-07 19:44:00,77.3,71.7,29.98,NE,55,0.0,1.0,83,0.00,,,0.00,0,Wunderground v.1.15,2013-09-08 00:44:00,
2013-09-07 19:49:00,76.9,71.3,29.98,NNE,29,4.0,4.0,83,0.00,,,0.00,0,Wunderground v.1.15,2013-09-08 00:49:00,
2013-09-07 19:54:00,76.6,71.0,29.98,NNE,22,0.0,3.0,83,0.00,,,0.00,0,Wunderground v.1.15,2013-09-08 00:54:00,
2013-09-07 19:59:00,76.3,71.1,29.99,NNE,23,0.0,3.0,84,0.00,,,0.00,0,Wunderground v.1.15,2013-09-08 00:59:00,
2013-09-07 20:04:00,75.9,70.7,30.01,NNE,17,0.0,3.0,84,0.00,,,0.00,0,Wunderground v.1.15,2013-09-08 01:04:00,
2013-09-07 20:09:00,75.7,69.8,30.01,NNE,27,6.0,6.0,82,0.00,,,0.00,0,Wunderground v.1.15,2013-09-08 01:09:00,
2013-09-07 20:14:00,75.5,67.8,30.00,NW,309,4.0,22.0,77,0.00,,,0.00,0,Wunderground v.1.15,2013-09-08 01:14:00,
2013-09-07 20:19:00,75.3,67.2,30.00,NNE,19,7.0,7.0,76,0.00,,,0.00,0,Wunderground v.1.15,2013-09-08 01:19:00,
2013-09-07 20:24:00,75.0,66.9,30.00,NNE,14,1.0,12.0,76,0.00,,,0.00,0,Wunderground v.1.15,2013-09-08 01:24:00,
2013-09-07 20:29:00,74.7,67.4,29.99,NE,42,1.0,4.0,78,0.00,,,0.00,0,Wunderground v.1.15,2013-09-08 01:29:00,
2013-09-07 20:34:00,74.4,67.5,29.99,NE,55,3.0,6.0,79,0.00,,,0.00,0,Wunderground v.1.15,2013-09-08 01:34:00,
2013-09-07 20:39:00,74.2,67.3,29.99,NE,46,0.0,1.0,79,0.00,,,0.00,0,Wunderground v.1.15,2013-09-08 01:39:00,
2013-09-07 20:44:00,74.0,67.1,30.00,NE,40,1.0,4.0,79,0.00,,,0.00,0,Wunderground v.1.15,2013-09-08 01:44:00,
2013-09-07 20:49:00,73.7,67.1,30.00,NE,41,2.0,2.0,80,0.00,,,0.00,0,Wunderground v.1.15,2013-09-08 01:49:00,
2013-09-07 20:54:00,73.3,67.1,30.01,NNE,17,3.0,6.0,81,0.00,,,0.00,0,Wunderground v.1.15,2013-09-08 01:54:00,
2013-09-07 20:59:00,72.8,67.0,30.01,NNE,32,2.0,5.0,82,0.00,,,0.00,0,Wunderground v.1.15,2013-09-08 01:59:00,
2013-09-07 21:05:00,72.4,66.9,30.02,NNE,22,4.0,7.0,83,0.00,,,0.00,0,Wunderground v.1.15,2013-09-08 02:05:00,
2013-09-07 21:10:00,72.1,66.6,30.02,NE,40,2.0,2.0,83,0.00,,,0.00,0,Wunderground v.1.15,2013-09-08 02:10:00,
2013-09-07 21:15:00,71.8,66.7,30.03,NE,51,4.0,7.0,84,0.00,,,0.00,0,Wunderground v.1.15,2013-09-08 02:15:00,
2013-09-07 21:20:00,71.5,66.8,30.03,NNE,19,4.0,4.0,85,0.00,,,0.00,0,Wunderground v.1.15,2013-09-08 02:20:00,
2013-09-07 21:25:00,71.3,66.6,30.03,NNE,30,4.0,12.0,85,0.00,,,0.00,0,Wunderground v.1.15,2013-09-08 02:25:00,
2013-09-07 21:30:00,71.2,66.8,30.03,NNE,24,10.0,10.0,86,0.00,,,0.00,0,Wunderground v.1.15,2013-09-08 02:30:00,
2013-09-07 21:35:00,71.1,67.0,30.03,NNE,16,2.0,10.0,87,0.00,,,0.00,0,Wunderground v.1.15,2013-09-08 02:35:00,
2013-09-07 21:40:00,71.0,67.3,30.03,NNE,17,3.0,3.0,88,0.00,,,0.00,0,Wunderground v.1.15,2013-09-08 02:40:00,
2013-09-07 21:45:00,71.0,67.3,30.03,NNE,29,1.0,5.0,88,0.00,,,0.00,0,Wunderground v.1.15,2013-09-08 02:45:00,
2013-09-07 21:50:00,71.1,67.4,30.03,NNE,27,6.0,6.0,88,0.00,,,0.00,0,Wunderground v.1.15,2013-09-08 02:50:00,
2013-09-07 21:55:00,71.0,67.3,30.03,NE,42,3.0,9.0,88,0.00,,,0.00,0,Wunderground v.1.15,2013-09-08 02:55:00,
2013-09-07 22:00:00,71.0,67.3,30.04,ENE,58,0.0,2.0,88,0.00,,,0.00,0,Wunderground v.1.15,2013-09-08 03:00:00,
2013-09-07 22:05:00,71.1,67.7,30.04,NNE,13,1.0,14.0,89,0.00,,,0.00,0,Wunderground v.1.15,2013-09-08 03:05:00,
2013-09-07 22:10:00,71.1,67.7,30.04,NNE,16,9.0,9.0,89,0.00,,,0.00,0,Wunderground v.1.15,2013-09-08 03:10:00,
2013-09-07 22:15:00,71.2,67.8,30.04,NNE,20,3.0,10.0,89,0.00,,,0.00,0,Wunderground v.1.15,2013-09-08 03:15:00,
2013-09-07 22:20:00,71.2,67.8,30.04,NNW,343,5.0,12.0,89,0.00,,,0.00,0,Wunderground v.1.15,2013-09-08 03:20:00,
2013-09-07 22:25:00,71.1,67.7,30.04,North,5,2.0,13.0,89,0.00,,,0.00,0,Wunderground v.1.15,2013-09-08 03:25:00,
2013-09-07 22:30:00,71.0,67.6,30.05,ENE,62,2.0,4.0,89,0.00,,,0.00,0,Wunderground v.1.15,2013-09-08 03:30:00,
2013-09-07 22:35:00,70.8,67.4,30.05,NNE,32,1.0,12.0,89,0.00,,,0.00,0,Wunderground v.1.15,2013-09-08 03:35:00,
2013-09-07 22:40:00,70.5,66.8,30.05,NE,44,6.0,11.0,88,0.00,,,0.00,0,Wunderground v.1.15,2013-09-08 03:40:00,
2013-09-07 22:45:00,70.2,66.1,30.06,NE,53,7.0,13.0,87,0.00,,,0.00,0,Wunderground v.1.15,2013-09-08 03:45:00,
2013-09-07 22:50:00,69.8,65.4,30.06,North,355,2.0,5.0,86,0.00,,,0.00,0,Wunderground v.1.15,2013-09-08 03:50:00,
2013-09-07 22:55:00,69.5,65.5,30.06,NE,38,2.0,8.0,87,0.00,,,0.00,0,Wunderground v.1.15,2013-09-08 03:55:00,
2013-09-07 23:00:00,69.3,65.3,30.06,North,360,6.0,6.0,87,0.00,,,0.00,0,Wunderground v.1.15,2013-09-08 04:00:00,
2013-09-07 23:01:00,69.3,65.3,30.06,NNE,18,7.0,9.0,87,0.00,,,0.00,0,Wunderground v.1.15,2013-09-08 04:01:00,
2013-09-07 23:02:00,69.3,65.3,30.07,NNE,16,1.0,9.0,87,0.00,,,0.00,0,Wunderground v.1.15,2013-09-08 04:02:00,
2013-09-07 23:07:00,69.1,65.1,30.06,NNE,27,4.0,11.0,87,0.00,,,0.00,0,Wunderground v.1.15,2013-09-08 04:07:00,
2013-09-07 23:12:00,68.9,64.9,30.07,NE,42,5.0,17.0,87,0.00,,,0.00,0,Wunderground v.1.15,2013-09-08 04:12:00,
2013-09-07 23:17:00,68.7,64.7,30.07,NE,39,3.0,17.0,87,0.00,,,0.00,0,Wunderground v.1.15,2013-09-08 04:17:00,
2013-09-07 23:22:00,68.5,64.5,30.07,NE,41,5.0,14.0,87,0.00,,,0.00,0,Wunderground v.1.15,2013-09-08 04:22:00,
2013-09-07 23:27:00,68.4,64.4,30.08,NE,44,3.0,14.0,87,0.00,,,0.00,0,Wunderground v.1.15,2013-09-08 04:27:00,
2013-09-07 23:32:00,68.2,63.9,30.08,NNE,27,4.0,11.0,86,0.00,,,0.00,0,Wunderground v.1.15,2013-09-08 04:32:00,
2013-09-07 23:37:00,68.0,63.3,30.08,NNE,31,5.0,15.0,85,0.00,,,0.00,0,Wunderground v.1.15,2013-09-08 04:37:00,
2013-09-07 23:42:00,67.8,63.1,30.08,North,5,2.0,14.0,85,0.00,,,0.00,0,Wunderground v.1.15,2013-09-08 04:42:00,
2013-09-07 23:47:00,67.6,62.9,30.09,NNE,15,4.0,14.0,85,0.00,,,0.00,0,Wunderground v.1.15,2013-09-08 04:47:00,
2013-09-07 23:52:00,67.4,62.7,30.09,North,5,11.0,14.0,85,0.00,,,0.00,0,Wunderground v.1.15,2013-09-08 04:52:00,
2013-09-07 23:57:00,67.3,62.6,30.09,NNE,28,3.0,14.0,85,0.00,,,0.00,0,Wunderground v.1.15,2013-09-08 04:57:00,